AKDT,Max TemperatureF,Mean TemperatureF,Min TemperatureF,Max Dew PointF,MeanDew PointF,Min DewpointF,Max Humidity, Mean Humidity, Min Humidity, Max Sea Level PressureIn, Mean Sea Level PressureIn, Min Sea Level PressureIn, Max VisibilityMiles, Mean VisibilityMiles, Min VisibilityMiles, Max Wind SpeedMPH, Mean Wind SpeedMPH, Max Gust SpeedMPH,PrecipitationIn, CloudCover, Events, WindDirDegrees
2013-3-1,26,17,8,21,14,0,93,77,55,29.89,29.83,29.70,10,10,3,17,12,25,0.00,6,,217
2013-3-2,36,28,21,28,25,18,86,70,58,29.74,29.53,29.41,10,9,2,36,21,43,0.00,7,,91
2013-3-3,37,34,32,30,28,27,87,75,58,30.04,29.76,29.50,10,10,3,26,16,31,0.00,6,,63
2013-3-4,39,37,35,28,27,25,75,66,55,30.09,30.01,29.88,10,10,10,39,21,47,0.00,3,,139
2013-3-5,39,34,30,28,28,27,87,70,55,29.88,29.77,29.69,10,9,0,40,27,47,0.00,5,,155
2013-3-6,39,31,23,34,26,18,93,78,49,29.84,29.49,28.68,10,5,0,67,14,83,0.51,7,,108
2013-3-7,42,34,25,34,30,27,81,71,61,28.74,28.58,28.48,10,8,1,70,46,81,0.02,7,,133
2013-3-8,35,32,28,30,26,21,87,79,65,29.78,29.24,28.75,10,5,0,34,18,43,0.01,8,,223
2013-3-9,32,28,24,25,19,14,80,67,45,30.27,30.13,29.79,10,9,2,24,18,32,0.00,4,,255
2013-3-10,33,30,26,28,23,18,87,72,52,30.57,30.40,30.21,10,9,2,26,16,33,0.00,8,,273
2013-3-11,28,22,15,19,15,9,80,66,45,30.58,30.55,30.49,10,10,10,18,12,22,0.00,5,,349
2013-3-12,26,20,15,16,12,7,93,68,45,30.49,30.30,30.09,10,10,10,17,7,21,0.00,0,,30
2013-3-13,24,16,8,14,7,0,100,70,54,30.09,29.92,29.76,10,10,10,15,6,,0.00,0,,48
2013-3-14,24,16,8,12,7,0,85,67,48,29.76,29.68,29.65,10,10,3,12,4,,0.00,2,,347
2013-3-15,30,19,12,19,9,3,86,64,24,29.83,29.77,29.72,10,10,2,21,7,26,0.00,7,,201
2013-3-16,33,24,15,27,22,12,86,77,64,30.28,30.03,29.72,10,8,0,21,11,26,0.00,4,,214
2013-3-17,37,28,19,27,21,16,86,71,40,30.33,30.29,30.22,10,9,1,21,7,23,0.00,5,,205
2013-3-18,30,27,24,25,21,12,86,72,50,30.27,30.25,30.22,10,10,5,28,16,32,0.00,7,,297
2013-3-19,26,24,21,18,14,9,74,64,45,30.27,30.25,30.23,10,10,10,20,14,25,0.00,6,,311
2013-3-20,28,18,8,18,11,0,93,67,47,30.28,30.26,30.24,10,10,10,13,8,,0.00,0,,263
2013-3-21,39,26,12,25,15,0,80,61,42,30.26,30.11,30.00,10,10,10,17,6,18,0.00,0,,117
2013-3-22,35,27,19,28,25,19,86,79,64,29.99,29.95,29.92,10,7,2,14,7,,0.00,8,,214
2013-3-23,30,26,19,27,22,12,86,81,66,29.92,29.78,29.69,10,5,1,24,10,30,0.00,8,,42
2013-3-24,24,20,17,18,10,3,86,65,40,30.08,29.97,29.79,10,9,3,24,17,31,0.00,5,,331
2013-3-25,17,14,10,10,4,-2,79,67,54,30.11,30.07,30.03,10,7,1,23,16,28,0.00,8,,308
2013-3-26,14,10,5,5,0,-6,85,66,35,30.12,30.09,30.05,10,10,10,22,11,,0.00,3,,51
2013-3-27,41,24,6,30,23,-4,79,66,55,30.05,29.82,29.60,10,10,10,41,18,50,0.00,4,,131
2013-3-28,39,36,33,32,29,27,87,74,61,29.61,29.54,29.48,10,10,10,38,19,46,0.00,7,,152
2013-3-29,41,37,32,30,28,25,81,72,61,29.85,29.67,29.58,10,10,10,22,10,25,0.00,5,,144
2013-3-30,37,34,30,30,27,23,86,78,65,30.23,30.05,29.85,10,8,0,12,5,,0.00,7,,338
2013-3-31,33,28,24,27,23,19,86,80,63,30.31,30.25,30.20,10,8,1,12,7,,0.00,7,,291